Location: Fremont
(37.5480°N, 121.9880°W)
Time: 16:57:31
(UTC-07:00)

Daily predictions for brighter satellites

Satellite Brightness Start Highest point End
(mag) Time Altitude Azimuth Time Altitude Azimuth Time Altitude Azimuth
USA 215 4.1 19:45:07 10° ENE 19:50:35 28° SE 19:56:00 10° S
SJ-6B 2.7 19:48:28 10° SSE 19:52:09 61° ENE 19:55:50 10° N
ALOS 2.4 19:48:51 10° SSE 19:53:23 52° ENE 19:57:55 10° N
Meteor 1-22 Rocket 4.5 19:48:30 10° SSE 19:54:02 51° E 19:59:49 10° NNE
Cosmos 990 Rocket 4.1 19:49:29 10° S 19:54:37 59° ESE 19:59:46 10° NNE
Cosmos 1898 Rocket 3.8 19:51:52 10° SSW 19:57:10 75° WNW 20:02:29 10° NNE
Helios 1B rocket 3.9 19:56:28 10° NE 19:59:12 17° E 20:01:55 10° SE
Yuri Rocket 4.5 19:55:53 10° SW 19:59:22 24° S 20:02:44 10° SE
BREEZE-M DEB (TANK) 3.8 19:57:43 10° S 20:00:05 21° ESE 20:04:43 10° ENE
Helios 1A 4.4 20:00:43 10° ESE 20:03:40 19° ENE 20:06:37 10° NNE
Cosmos 1844 Rocket 3.3 19:58:27 10° SSW 20:04:02 64° WNW 20:09:39 10° NNE
Cosmos 1378 3.1 20:00:36 10° N 20:04:21 65° E 20:08:03 10° SSE
Cosmos 1000 Rocket 4.5 19:58:14 10° N 20:04:26 85° E 20:10:39 10° S
Lacrosse 4 Rocket 2.4 20:01:59 10° SW 20:05:54 48° WNW 20:09:50 10° NNE
Cosmos 2344 3.6 20:02:30 10° SSW 20:10:11 84° ESE 20:18:34 10° NE
HJ-1C 3.3 20:07:02 10° SSE 20:10:24 70° ENE 20:13:47 10° N
Cosmos 2123 Rocket 4.1 20:07:13 10° N 20:13:26 56° E 20:19:33 10° SSE
Cosmos 1758 4.3 20:10:27 10° SE 20:13:44 25° E 20:17:02 10° NE
Cosmos 1833 Rocket 4.2 20:12:24 10° N 20:16:11 18° NE 20:18:39 14° E
Cosmos 2278 Rocket 2.2 20:10:35 10° S 20:16:12 67° ESE 20:21:50 10° NNE
Geosat 4.1 20:11:42 10° NE 20:16:38 54° ESE 20:21:31 10° S
Lacrosse 5 1.9 20:12:56 10° SW 20:18:01 86° NW 20:23:07 10° NE
FREGAT/IRIS 4.1 20:15:24 10° S 20:18:18 40° W 20:21:14 10° NNW
H-2A R/B 2.7 20:16:27 10° SSE 20:20:16 64° ENE 20:24:10 10° N
SL-27 R/B 2.5 20:17:19 10° N 20:20:51 59° ENE 20:24:25 10° SSE
FENGYUN 3A 3.7 20:15:51 10° SSE 20:21:16 86° WSW 20:26:42 10° NNW
FengYun 1-2 T 4.3 20:17:09 10° SSE 20:22:43 90° E 20:28:22 10° NNW
Cosmos 1953 3.1 20:19:34 10° SSE 20:23:10 31° E 20:26:45 10° NNE
Meteor 1-4 Rocket 3.3 20:20:20 10° SSE 20:23:19 27° E 20:26:18 10° NNE
Meteor 1-29 4.0 20:23:56 10° NE 20:26:50 24° E 20:27:30 23° ESE
Resurs 1-3 3.6 20:22:35 10° SSE 20:26:55 64° ENE 20:31:16 10° N
Cosmos 1544 3.3 20:24:04 10° SSE 20:27:31 43° E 20:31:01 10° NNE
Cosmos 1937 Rocket 4.4 20:23:18 10° SW 20:28:23 53° WNW 20:33:35 10° N
Cosmos 2297 4.1 20:24:41 10° S 20:29:53 38° ESE 20:35:07 10° NE
SeaSat 1 3.0 20:28:44 10° SSE 20:33:35 59° WSW 20:38:27 10° NNW
Cosmos 1818 4.4 20:28:41 10° NNW 20:33:37 34° NE 20:36:09 23° E
ATLAS 5 CENTAUR R/B 2.9 20:32:11 10° SSE 20:35:09 22° ESE 20:35:09 22° ESE
Meteor 1-24 Rocket 4.0 20:33:05 10° NNW 20:38:34 70° W 20:44:12 10° S
Tiangong 1 0.7 20:39:34 10° WNW 20:42:31 85° NNE 20:43:02 56° ESE
Cosmos 1766 4.3 20:39:35 10° SSW 20:43:19 48° W 20:47:06 10° N
Lacrosse 5 rocket 3.6 20:45:06 10° NNE 20:45:46 10° NNE 20:46:25 10° NE
Cosmos 1408 Rocket 4.2 20:42:51 10° NNE 20:46:56 34° ENE 20:47:32 33° E
Cosmos 2082 Rocket 2.9 20:43:01 10° N 20:48:13 35° ENE 20:49:57 29° E
Abrixas 4.1 20:47:09 10° NNW 20:49:24 22° NNE 20:49:24 22° NNE
Cosmos 2098 Rocket 4.3 20:44:46 10° S 20:51:41 72° E 20:59:16 10° N
USA 186 2.6 20:53:13 28° N 20:53:13 28° N 20:54:25 10° N
Cosmos 1447 Rocket 4.4 20:46:24 10° N 20:52:29 63° E 20:57:50 14° SSE
Cosmos 468 4.5 20:49:20 10° NNW 20:54:32 64° ENE 20:57:06 30° SE
Okean 3 Rocket 3.6 20:50:17 10° N 20:54:41 83° W 20:59:01 10° S
RESURS DK-1 2.9 20:50:51 10° NNW 20:54:54 58° WSW 20:57:47 18° S
Cosmos 1459 Rocket 4.3 20:49:40 10° SSE 20:55:30 42° E 21:01:17 10° NNE
Cosmos 2173 Rocket 4.2 20:54:35 17° SSE 20:58:55 43° E 21:04:46 10° NNE
GPS 2-05 Rocket1 4.1 20:57:07 10° SW 20:59:44 30° S 20:59:44 30° S
BREEZE-M DEB (TANK) 4.0 20:59:07 10° W 21:02:00 48° NNW 21:09:48 10° NE
SJ-11-01 4.4 21:03:05 45° ESE 21:04:04 53° ENE 21:08:40 10° N
Cosmos 1867 3.4 21:01:37 10° SSW 21:07:02 77° ESE 21:12:30 10° NNE
Cosmos 372 Rocket 3.8 21:07:13 10° S 21:12:18 76° ESE 21:17:27 10° NNE
Cosmos 1674 3.1 21:09:55 10° N 21:12:51 49° NNE 21:12:51 49° NNE
GP-B 3.1 21:13:13 28° S 21:15:34 82° W 21:20:01 10° N
CZ-3B DEB 4.2 21:07:31 10° WSW 21:16:58 36° NW 21:21:43 10° NNE
Resurs 01 Rocket 3.6 21:14:36 10° SSW 21:18:21 27° W 21:22:07 10° NW
Meteor 1-21 Rocket 4.3 21:16:32 10° N 21:22:23 81° W 21:25:52 26° S
Cosmos 1076 Rocket 4.0 21:20:38 10° NNW 21:24:48 57° W 21:26:09 38° SSW
Cosmos 158 Rocket 3.8 21:21:16 10° NNW 21:26:22 70° ENE 21:26:35 69° E
Cosmos 1766 Rocket 3.7 21:25:39 10° N 21:30:07 74° W 21:30:29 69° SW
Cosmos 2016 Rocket 4.0 21:30:07 57° E 21:30:13 57° E 21:36:15 10° NNE
Cosmos 1470 4.0 21:33:52 35° N 21:33:52 35° N 21:36:18 10° N
H-2A R/B 4.2 21:35:56 14° NE 21:35:56 14° NE 21:37:08 10° NNE
USA 215 3.4 21:27:22 10° NE 21:33:53 72° NW 21:40:22 10° SW
Helios 1B rocket 4.1 21:30:51 10° N 21:34:34 33° WNW 21:38:16 10° SW
Cosmos 1340 Rocket 4.2 21:31:18 10° N 21:33:27 30° N 21:33:27 30° N
Meteor 2-17 Rocket 4.3 21:38:47 65° E 21:38:47 65° E 21:44:40 10° NNE
Envisat 3.3 21:37:39 45° SSW 21:39:00 63° WSW 21:44:04 10° NNW
Cosmos 2100 Rocket 4.1 21:37:15 10° SSW 21:43:32 73° W 21:49:54 10° N
Cosmos-2242 3.9 21:46:50 46° WNW 21:46:50 46° WNW 21:50:52 10° N
Cosmos 1833 Rocket 2.9 21:55:01 10° NNW 22:00:23 63° W 22:00:23 63° W
Lacrosse 5 4.3 21:58:07 10° WNW 22:01:39 19° NNW 22:05:12 10° NNE
ERS-1 Rocket 3.6 22:03:28 52° NW 22:03:28 52° NW 22:07:23 10° NNW
Cosmos 1802 Rocket 4.2 22:00:27 43° SW 22:02:25 65° W 22:08:33 10° N
SPOT 5 4.3 22:05:38 35° N 22:05:38 35° N 22:08:43 10° N
H-2A R/B (2) 4.0 22:00:12 10° WSW 22:02:09 23° SSW 22:02:09 23° SSW
USA 267 4.0 22:04:45 40° NE 22:04:50 40° NNE 22:10:49 10° NNW
ATLAS 5 CENTAUR R/B 4.0 22:15:47 10° WSW 22:16:59 17° WSW 22:16:59 17° WSW
Lacrosse 5 rocket 4.3 22:22:00 10° NW 22:22:18 12° NW 22:22:18 12° NW
Cosmos 2082 Rocket 3.7 22:27:17 10° NW 22:31:51 29° W 22:31:51 29° W
